Flag for Poland Weather past 2 weeks in Tychy, Poland

Now
57 °F

Passing clouds.


Feels Like: 54 °F
Forecast: 36 / 61 °F
Wind: 15 mph from Northwest

Location: Katowice Airport

Current Time: Apr 21, 2015 at 1:05:43 PM

Latest Report: Apr 21, 2015 at 12:30 PM


Visibility: N/A

Pressure: 30.09 "Hg

Humidity: 39%

Dew point: 32 °F

Location of TychyLocation

Historic Weather in Tychy — Graph

°F

Tychy temperature yesterday

Maximum temperature yesterday: 57 °F (at 2:30 PM)
Minimum temperature yesterday: 32 °F (at 4:30 AM)
Average temperature yesterday: 45 °F

Past Weeks' High & Low Weather Summary

 TemperatureHumidityPressure
High68 °F (Apr 11, 2:30 PM)100% (Apr 7, 2:00 AM)30.48 "Hg (Apr 7, 2:00 AM)
Low28 °F (Apr 7, 2:00 AM)18% (Apr 9, 3:00 PM)29.83 "Hg (Apr 16, 2:30 AM)
Average47 °F62%30.15 "Hg
* Reported Apr 6 12:00 Noon — Apr 21 12:00 Noon, Tychy, Weather by CustomWeather, © 2015

Note: Actual official high and low records may vary slightly from our data, if they occured in-between our weather recording intervals... More about our weather records

Advertising

Tychy weather history for previous 24 hours

 ConditionsComfort  
Time TempWeatherWind HumidityBarometerVisibility
12:00 PM
Tue, Apr 21
55 °FPassing clouds.16 mph44%30.12 "HgN/A
11:30 AM54 °FPassing clouds.16 mph47%30.12 "HgN/A
11:00 AM52 °FSunny.13 mph50%30.12 "Hg10 mi
10:30 AM52 °FSunny.18 mph50%30.15 "Hg10 mi
10:00 AM50 °FPassing clouds.15 mph50%30.15 "HgN/A
9:30 AM48 °FSunny.13 mph50%30.15 "Hg10 mi
9:00 AM45 °FPassing clouds.10 mph61%30.18 "HgN/A
8:30 AM43 °FSunny.8 mph61%30.18 "Hg10 mi
8:00 AM41 °FSunny.9 mph66%30.18 "Hg10 mi
7:30 AM37 °FPassing clouds.5 mph70%30.18 "HgN/A
7:00 AM34 °FSunny.7 mph75%30.15 "Hg10 mi
6:30 AM32 °FClear.7 mph80%30.15 "Hg10 mi
6:00 AM32 °FClear.8 mph75%30.15 "Hg10 mi
5:30 AM32 °FClear.7 mph75%30.15 "Hg10 mi
5:00 AM30 °FClear.8 mph80%30.15 "Hg10 mi
4:30 AM32 °FClear.6 mph69%30.15 "Hg10 mi
4:00 AM34 °FClear.7 mph70%30.15 "Hg10 mi
3:30 AM34 °FClear.7 mph65%30.18 "Hg10 mi
3:00 AM36 °FClear.7 mph60%30.18 "Hg10 mi
2:30 AM36 °FClear.7 mph60%30.18 "Hg10 mi
2:00 AM36 °FClear.7 mph60%30.15 "Hg10 mi
1:30 AM37 °FClear.5 mph60%30.15 "Hg10 mi
1:00 AM37 °FClear.7 mph60%30.15 "Hg10 mi
12:30 AM39 °FClear.7 mph56%30.15 "Hg10 mi
12:00 AM39 °FClear.10 mph52%30.15 "Hg10 mi
11:30 PM
Mon, Apr 20
41 °FClear.12 mph49%30.15 "Hg10 mi
11:00 PM41 °FClear.12 mph49%30.15 "Hg10 mi
10:30 PM43 °FClear.14 mph42%30.12 "Hg10 mi
10:00 PM43 °FClear.14 mph42%30.12 "Hg10 mi
9:30 PM45 °FClear.16 mph39%30.09 "Hg10 mi
9:00 PM45 °FClear.13 mph42%30.09 "Hg10 mi
8:30 PM46 °FSunny.13 mph40%30.09 "Hg10 mi
8:00 PM48 °FSunny.18 mph34%30.07 "Hg10 mi
7:30 PM50 °FSunny.17 mph32%30.04 "Hg10 mi
7:00 PM52 °FSunny.17 mph30%30.04 "Hg10 mi
6:30 PM54 °FSunny.21 mph30%30.04 "Hg10 mi
6:00 PM55 °FSunny.22 mph28%30.01 "Hg10 mi
5:30 PM55 °FSunny.25 mph28%30.01 "Hg10 mi
5:00 PM57 °FSunny.25 mph31%30.01 "Hg10 mi
4:30 PM57 °FSunny.22 mph29%30.01 "Hg10 mi
4:00 PM55 °FSunny.23 mph33%30.01 "Hg10 mi
3:30 PM57 °FPassing clouds.25 mph33%30.01 "HgN/A
3:00 PM55 °FSunny.22 mph33%30.01 "Hg10 mi
2:30 PM57 °FPassing clouds.21 mph36%30.01 "HgN/A
2:00 PM55 °FPassing clouds.20 mph41%30.01 "HgN/A
1:30 PM54 °FPassing clouds.22 mph44%30.01 "HgN/A
1:00 PM54 °FPassing clouds.23 mph44%30.01 "HgN/A
Weather by CustomWeather, © 2015

See weather overviewHow to use our weather pages